Location: F?ge?el
(45.8833°N, 22.5833°E)
Time: 09:04:18
(UTC+00:00)

BREEZE-M DEB (TANK) - Visible Passes

Search period start: 11 February 2026 00:00
Search period end: 21 February 2026 00:00
Orbit: 313 x 15876 km, 49.3° (Epoch: 10 February)

Date Brightness Start Highest point End Pass type
(mag) Time Alt. Az. Time Alt. Az. Time Alt. Az.
12 Feb 7.7 00:52:09 10° SSE 00:55:49 10° SE 00:58:48 10° SE visible
13 Feb 7.5 00:51:54 10° SSE 01:00:23 12° SE 01:05:52 10° ESE visible
14 Feb 7.3 00:53:09 10° SSE 01:04:53 14° SE 01:11:27 10° ESE visible
15 Feb 7.2 00:55:00 10° SSE 01:09:20 16° SE 01:16:30 10° ESE visible
16 Feb 7.2 00:57:10 10° S 01:13:43 17° SE 01:21:14 10° ESE visible
17 Feb 7.1 00:59:37 10° S 01:18:03 19° SE 01:25:46 10° ESE visible
18 Feb 7.0 01:02:15 10° S 01:22:21 21° SE 01:30:07 10° E visible
19 Feb 7.0 01:05:03 10° S 01:26:34 23° SE 01:34:20 10° E visible
20 Feb 6.8 01:07:59 10° S 01:30:43 25° SE 01:38:26 10° E visible
